When you browse on this site, cookies collect data to enhance your experience and personalize the content and advertising you see.
Visit our Privacy Policy to learn more. By continuing to use the site, you agree to this use of cookies and data.
  • In Spain
  • List of Countries
  • For 7 days
  • Water Temperature
  • Satellite Maps
  • Weather Map
  • Weather Widgets
  • user-avatar
    Login

    Hourly Weather Jarim

    Today, 17 June, Monday

    Time Temperature Precipitation Wind Pressure Humidity
    00:00 +20°C° 0 mm 1 mps 553 mmHg 53%
    01:00 +20°C° 0 mm 1 mps 553 mmHg 52%
    02:00 +20°C° 0 mm 1 mps 552 mmHg 52%
    03:00 +19°C° 0 mm 1 mps 552 mmHg 51%
    04:00 +19°C° 0 mm 1 mps 552 mmHg 52%
    05:00 +17°C° 0 mm 0 mps 552 mmHg 53%
    06:00 +17°C° 0 mm 0 mps 553 mmHg 54%
    07:00 +18°C° 0 mm 0 mps 554 mmHg 46%
    08:00 +22°C° 0 mm 1 mps 555 mmHg 39%
    09:00 +23°C° 0 mm 1 mps 556 mmHg 31%
    10:00 +24°C° 0.1 mm 2 mps 556 mmHg 31%
    11:00 +24°C° 0.1 mm 3 mps 556 mmHg 31%
    12:00 +25°C° 0.1 mm 3 mps 556 mmHg 31%
    13:00 +24°C° 0.6 mm 3 mps 555 mmHg 36%
    14:00 +22°C° 0.6 mm 3 mps 554 mmHg 41%
    15:00 +21°C° 0.6 mm 3 mps 554 mmHg 46%
    16:00 +20°C° 1.3 mm 3 mps 553 mmHg 52%
    17:00 +18°C° 1.3 mm 3 mps 553 mmHg 59%
    18:00 +17°C° 1.3 mm 3 mps 552 mmHg 66%
    19:00 +17°C° 0 mm 2 mps 553 mmHg 62%
    20:00 +19°C° 0 mm 1 mps 553 mmHg 59%
    21:00 +19°C° 0 mm 1 mps 553 mmHg 56%
    22:00 +19°C° 0 mm 1 mps 553 mmHg 55%
    23:00 +19°C° 0 mm 1 mps 553 mmHg 54%

    Tomorrow, 18 June, Tuesday

    Time Temperature Precipitation Wind Pressure Humidity
    00:00 +19°C° 0 mm 1 mps 553 mmHg 54%
    01:00 +19°C° 0 mm 1 mps 553 mmHg 53%
    02:00 +19°C° 0 mm 1 mps 553 mmHg 53%
    03:00 +18°C° 0 mm 1 mps 552 mmHg 52%
    04:00 +18°C° 0 mm 1 mps 552 mmHg 52%
    05:00 +18°C° 0 mm 1 mps 553 mmHg 52%
    06:00 +18°C° 0 mm 1 mps 553 mmHg 52%
    07:00 +20°C° 0 mm 1 mps 554 mmHg 46%
    08:00 +20°C° 0 mm 2 mps 555 mmHg 39%
    09:00 +23°C° 0 mm 2 mps 556 mmHg 32%
    10:00 +24°C° 0 mm 3 mps 556 mmHg 31%
    11:00 +24°C° 0 mm 3 mps 556 mmHg 31%
    12:00 +25°C° 0 mm 4 mps 556 mmHg 30%
    13:00 +25°C° 0 mm 4 mps 556 mmHg 31%
    14:00 +25°C° 0 mm 5 mps 555 mmHg 31%
    15:00 +24°C° 0 mm 6 mps 555 mmHg 32%
    16:00 +23°C° 0.4 mm 5 mps 554 mmHg 36%
    17:00 +23°C° 0.4 mm 4 mps 554 mmHg 39%
    18:00 +22°C° 0.4 mm 4 mps 553 mmHg 43%
    19:00 +21°C° 0.3 mm 3 mps 553 mmHg 49%
    20:00 +20°C° 0.3 mm 2 mps 553 mmHg 56%
    21:00 +20°C° 0.3 mm 1 mps 553 mmHg 62%
    22:00 +20°C° 0 mm 1 mps 553 mmHg 62%
    23:00 +20°C° 0 mm 1 mps 553 mmHg 61%

    Day after tomorrow, 19 June, Wednesday

    Time Temperature Precipitation Wind Pressure Humidity
    00:00 +19°C° 0 mm 1 mps 552 mmHg 61%
    01:00 +19°C° 0 mm 1 mps 552 mmHg 58%
    02:00 +19°C° 0 mm 1 mps 552 mmHg 56%
    03:00 +19°C° 0 mm 1 mps 551 mmHg 53%
    04:00 +18°C° 0 mm 1 mps 551 mmHg 53%
    05:00 +18°C° 0 mm 1 mps 551 mmHg 52%
    06:00 +18°C° 0 mm 1 mps 551 mmHg 52%
    07:00 +20°C° 0 mm 1 mps 553 mmHg 43%
    08:00 +21°C° 0 mm 2 mps 554 mmHg 34%
    09:00 +24°C° 0 mm 2 mps 555 mmHg 25%
    10:00 +25°C° 0 mm 3 mps 556 mmHg 24%
    11:00 +25°C° 0 mm 3 mps 556 mmHg 23%
    12:00 +26°C° 0 mm 4 mps 556 mmHg 21%
    13:00 +26°C° 0.1 mm 4 mps 555 mmHg 25%
    14:00 +25°C° 0.1 mm 4 mps 555 mmHg 29%
    15:00 +25°C° 0.1 mm 4 mps 554 mmHg 32%
    16:00 +22°C° 1.1 mm 4 mps 553 mmHg 40%
    17:00 +20°C° 1.1 mm 4 mps 552 mmHg 48%
    18:00 +18°C° 1.1 mm 3 mps 552 mmHg 57%
    19:00 +19°C° 0 mm 3 mps 552 mmHg 56%
    20:00 +19°C° 0 mm 2 mps 553 mmHg 55%
    21:00 +20°C° 0 mm 1 mps 553 mmHg 54%
    22:00 +20°C° 0 mm 1 mps 553 mmHg 51%
    23:00 +20°C° 0 mm 1 mps 553 mmHg 49%

    20 June, Thursday

    Time Temperature Precipitation Wind Pressure Humidity
    00:00 +19°C° 0 mm 2 mps 553 mmHg 47%
    01:00 +20°C° 0 mm 1 mps 552 mmHg 47%
    02:00 +20°C° 0 mm 1 mps 552 mmHg 47%
    03:00 +20°C° 0 mm 1 mps 552 mmHg 46%
    04:00 +19°C° 0 mm 1 mps 552 mmHg 48%
    05:00 +19°C° 0 mm 1 mps 552 mmHg 49%
    06:00 +16°C° 0 mm 0 mps 551 mmHg 50%
    07:00 +20°C° 0 mm 1 mps 553 mmHg 43%
    08:00 +22°C° 0 mm 1 mps 554 mmHg 36%
    09:00 +23°C° 0 mm 2 mps 555 mmHg 29%
    10:00 +24°C° 0 mm 2 mps 555 mmHg 27%
    11:00 +25°C° 0 mm 2 mps 555 mmHg 26%
    12:00 +25°C° 0 mm 2 mps 555 mmHg 25%
    13:00 +25°C° 0 mm 3 mps 555 mmHg 27%
    14:00 +25°C° 0 mm 4 mps 554 mmHg 28%
    15:00 +25°C° 0 mm 4 mps 554 mmHg 30%
    16:00 +22°C° 0.4 mm 4 mps 553 mmHg 37%
    17:00 +21°C° 0.4 mm 3 mps 553 mmHg 44%
    18:00 +19°C° 0.4 mm 3 mps 552 mmHg 52%
    19:00 +19°C° 0 mm 3 mps 552 mmHg 52%
    20:00 +19°C° 0 mm 2 mps 552 mmHg 53%
    21:00 +19°C° 0 mm 2 mps 553 mmHg 54%
    22:00 +20°C° 0 mm 1 mps 553 mmHg 52%
    23:00 +20°C° 0 mm 1 mps 552 mmHg 50%

    21 June, Friday

    Time Temperature Precipitation Wind Pressure Humidity
    00:00 +20°C° 0 mm 1 mps 552 mmHg 48%
    01:00 +19°C° 0 mm 1 mps 552 mmHg 47%
    02:00 +19°C° 0 mm 1 mps 551 mmHg 46%
    03:00 +19°C° 0 mm 1 mps 551 mmHg 45%
    04:00 +18°C° 0 mm 1 mps 551 mmHg 46%
    05:00 +18°C° 0 mm 1 mps 551 mmHg 46%
    06:00 +18°C° 0 mm 1 mps 551 mmHg 47%
    07:00 +20°C° 0 mm 1 mps 552 mmHg 42%
    08:00 +21°C° 0 mm 1 mps 554 mmHg 36%
    09:00 +23°C° 0 mm 1 mps 555 mmHg 30%
    10:00 +24°C° 0 mm 2 mps 555 mmHg 29%
    11:00 +24°C° 0 mm 2 mps 555 mmHg 28%
    12:00 +25°C° 0 mm 3 mps 555 mmHg 28%
    13:00 +24°C° 0 mm 2 mps 554 mmHg 30%
    14:00 +24°C° 0 mm 2 mps 553 mmHg 32%
    15:00 +23°C° 0 mm 1 mps 553 mmHg 34%
    16:00 +22°C° 0.1 mm 1 mps 552 mmHg 40%
    17:00 +20°C° 0.1 mm 2 mps 552 mmHg 45%
    18:00 +20°C° 0.1 mm 2 mps 552 mmHg 50%
    19:00 +19°C° 0.1 mm 2 mps 552 mmHg 54%
    20:00 +19°C° 0.1 mm 2 mps 552 mmHg 57%
    21:00 +19°C° 0.1 mm 1 mps 552 mmHg 60%
    22:00 +19°C° 0 mm 1 mps 552 mmHg 59%
    23:00 +19°C° 0 mm 1 mps 552 mmHg 58%

    22 June, Saturday

    Time Temperature Precipitation Wind Pressure Humidity
    00:00 +19°C° 0 mm 1 mps 551 mmHg 57%
    01:00 +19°C° 0 mm 1 mps 551 mmHg 56%
    02:00 +19°C° 0 mm 1 mps 551 mmHg 54%
    03:00 +18°C° 0 mm 1 mps 550 mmHg 53%
    04:00 +18°C° 0 mm 1 mps 551 mmHg 53%
    05:00 +18°C° 0 mm 1 mps 551 mmHg 53%
    06:00 +18°C° 0 mm 1 mps 551 mmHg 53%
    07:00 +20°C° 0 mm 1 mps 552 mmHg 47%
    08:00 +21°C° 0 mm 1 mps 553 mmHg 41%
    09:00 +23°C° 0 mm 1 mps 554 mmHg 35%
    10:00 +23°C° 0 mm 1 mps 554 mmHg 33%
    11:00 +24°C° 0 mm 2 mps 554 mmHg 31%
    12:00 +25°C° 0 mm 2 mps 554 mmHg 29%
    13:00 +24°C° 0.1 mm 3 mps 554 mmHg 33%
    14:00 +24°C° 0.1 mm 3 mps 553 mmHg 36%
    15:00 +23°C° 0.1 mm 4 mps 553 mmHg 39%
    16:00 +22°C° 0.4 mm 3 mps 553 mmHg 44%
    17:00 +21°C° 0.4 mm 3 mps 552 mmHg 48%
    18:00 +20°C° 0.4 mm 2 mps 552 mmHg 53%
    19:00 +20°C° 0.1 mm 2 mps 552 mmHg 54%
    20:00 +20°C° 0.1 mm 1 mps 552 mmHg 56%
    21:00 +20°C° 0.1 mm 1 mps 552 mmHg 57%
    22:00 +20°C° 0 mm 1 mps 552 mmHg 58%
    23:00 +18°C° 0 mm 0 mps 552 mmHg 59%
    Show more